Other Public Products
Issued by NWS Grand Forks, ND

Home | Current Version | Previous Version | Text Only | Print | Product List | Glossary On
Versions: 1 2 3 4 5 6 7 8 9 10 11 12 13 14 15 16 17 18 19 20 21 22 23 24 25 26 27 28 29 30 31 32 33 34 35 36 37 38 39 40 41 42 43 44 45 46 47 48 49 50
000
FPUS83 KFGF 191731
OPUFGF
PRAIRIE TO PINES WEATHER ROUNDUP
NATIONAL WEATHER SERVICE EASTERN NORTH DAKOTA/GRAND FORKS ND
1100 AM CST FRI JAN 19 2018

 **SATELLITE DATA USED TO AUGMENT SKY COVER AT AUTOMATED STATIONS**
 *****  WEATHER ACROSS EASTERN NORTH DAKOTA  *****

CITY           SKY/WX    TMP DP  RH WIND       PRES   REMARKS
GRAND FORKS    CLOUDY    39  32  76 SW10      29.44S
GRND FORKS AFB CLOUDY    41  30  64 W16       29.44S
GRND FORKS NWS   N/A     37 N/A N/A W10         N/A
BUXTON           N/A     37  36  95 SW9         N/A
DEVILS LAKE    PTSUNNY   39  30  70 W20       29.47R
FARGO          FAIR      34  29  82 SW7       29.50F
WAHPETON ARPT  FAIR      34  28  80 W8        29.51F
$$

 *****  WEATHER ACROSS CENTRAL AND WESTERN NORTH DAKOTA  *****

CITY           SKY/WX    TMP DP  RH WIND       PRES   REMARKS
JAMESTOWN      FAIR      37  29  72 W5        29.51R
BISMARCK       FAIR      32  27  81 SW5       29.60R
MINOT          FAIR      40  29  64 W13       29.53R
MINOT AFB      PTSUNNY   38  30  71 W14       29.52R
GARRISON         N/A     40  29  64 W12       29.55R
WILLISTON      FAIR      46  31  55 CALM      29.61R
DICKINSON      CLOUDY    38  30  73 W14       29.61R
HETTINGER      CLOUDY    36  30  79 W12       29.66R
$$

 *****  OTHER OBSERVATIONS NORTHEAST NORTH DAKOTA  *****

CITY           SKY/WX    TMP DP  RH WIND       PRES   REMARKS
WALHALLA       FAIR      41  32  70 NW10G16   29.41S
LANGDON        FAIR      37  36  93 W16       29.43S
CAVALIER         N/A     41  32  70 W18G28    29.40S
GRAFTON        FAIR      39  32  75 W12       29.45R
CANDO          FAIR      39  32  75 W18G24    29.50R
FORT TOTTEN      N/A     41  30  65 NW7       29.95
ROLLA          FAIR      39  30  70 W15       29.46R
RUGBY          FAIR      37  30  75 W14       29.51R
 ***** THE ABOVE OBSERVATIONS ARE NON NWS ARE NOT QUALITY
        CONTROLLED AND MAY MIS-REPORT RAIN FOR SNOW...
$$

 *****  OTHER OBSERVATIONS SOUTHEAST NORTH DAKOTA *****

CITY           SKY/WX    TMP DP  RH WIND       PRES   REMARKS
COOPERSTOWN    FAIR      37  32  81 W14       29.50S
VALLEY CITY    FAIR      34  34 100 W7        29.53F
OAKES            N/A     37  30  75 NW6       29.55R
GWINNER          N/A     36  30  80 W9        29.54R
SHEYENNE NWR     N/A     35  29  77 SW2       29.95
BUFFALO          N/A     37  29  72 S6          N/A
WYNDMERE       NOT AVBL
 ***** THE ABOVE OBSERVATIONS ARE NON NWS ARE NOT QUALITY
       CONTROLLED AND MAY MIS-REPORT RAIN FOR SNOW...
$$

  *****  WEATHER ACROSS NORTHERN MINNESOTA  *****

CITY           SKY/WX    TMP DP  RH WIND       PRES   REMARKS
FLAG ISLAND    FAIR      41  30  65 W16       29.31F
WARROAD        FAIR      39  34  81 SW12      29.37F
ROSEAU         FAIR      39  34  81 SW14      29.38R
HALLOCK        FAIR      34  30  86 S7        29.42R
THF RVR FALLS  CLOUDY    32  28  85 S10       29.44F WCI  24
HALSTAD        NOT AVBL
FOSSTON        FAIR      32  27  80 S8        29.46F WCI  25
BAUDETTE       PTSUNNY   40  30  67 W8        29.37R
WASKISH        PTSUNNY   37  30  75 SW13      29.42F
CROOKSTON      FAIR      34  28  80 S10       29.46F
$$
  *****  WEATHER ACROSS CENTRAL AND WEST MINNESOTA  *****

CITY           SKY/WX    TMP DP  RH WIND       PRES   REMARKS
BEMIDJI        PTSUNNY   38  29  71 W8        29.44F
PARK RAPIDS    FAIR      38  28  67 W13       29.48R
WADENA         FAIR      37  27  65 W7G17     29.49R
DETROIT LAKES  FAIR      37  30  75 CALM      29.49F
MOORHEAD       FAIR      32  27  80 CALM      29.51F
FERGUS FALLS   FAIR      34  27  75 NW3       29.51F
ELBOW LAKE     FAIR      35  28  76 NW6       29.52R
MORRIS MN      FAIR      37  30  75 W5        29.50R
STAPLES        FAIR      32  25  74 CALM      29.50R
WHEATON        FAIR      37  27  65 N3        29.53F
$$
  *****  WEATHER ELSEWHERE ACROSS MINNESOTA  *****

CITY           SKY/WX    TMP DP  RH WIND       PRES   REMARKS
DULUTH         FAIR      34  27  75 SW10      29.45F
INTRNTL FALLS  CLOUDY    38  29  70 W9G18     29.38R
ELY            FAIR      36  27  69 SW7       29.39R
CLOQUET        FAIR      34  25  69 S12       29.46F
BRAINERD       FAIR      35  27  72 S6        29.46F
HIBBING        FAIR      32  26  78 VRB3      29.43R
ALEXANDRIA     FAIR      38  27  64 SW8       29.49F
SAINT CLOUD    FAIR      33  28  81 SE8       29.50F
MINNEAPOLIS    CLOUDY    35  28  75 CALM      29.56F
$$

  *****  WEATHER ACROSS SOUTH DAKOTA  *****

CITY           SKY/WX    TMP DP  RH WIND       PRES   REMARKS
SIOUX FALLS    CLOUDY    41  32  70 SW7       29.57R
BROOKINGS      FAIR      36  29  75 SW6       29.53R
WATERTOWN      FAIR      36  30  79 W14       29.54R
HURON          FAIR      36  30  79 W5        29.56R
SISSETON         N/A     43  30  60 N13       29.50R
ABERDEEN       FAIR      33  26  75 NW3       29.57R
MITCHELL       FAIR      40  32  73 S6        29.57R
PIERRE         FAIR      36  29  75 NW13      29.60R
MOBRIDGE       FAIR      36  28  73 NW8       29.58R
RAPID CITY     FAIR      41  30  65 N30G38    29.68R
$$

  *****  SOME WEATHER IN NEARBY STATES *****

CITY           SKY/WX    TMP DP  RH WIND       PRES   REMARKS
GLASGOW MT     FAIR      37  29  72 W9        29.64R
GREAT FALLS MT FAIR      34  28  79 SW8       29.67R
CHEYENNE WY    FAIR      51  19  28 W5        29.82R
SCOTTSBLUFF NE FAIR      35  30  82 CALM      29.75R
OMAHA NE       PTSUNNY   39  26  59 S12       29.75S
DES MOINES IA  CLOUDY    39  25  57 SW16      29.76F
DAVENPORT IA   FAIR      38  23  55 SW16      29.86F
CHICAGO IL     PTSUNNY   34  20  56 SW17G24   29.88F WCI  23
EAU CLAIRE WI  FAIR      33  25  72 S5        29.61F
LA CROSSE WI   FAIR      33  25  72 S12       29.70F WCI  24
$$

  *****  SOME NATIONAL WEATHER *****

CITY           SKY/WX    TMP DP  RH WIND       PRES   REMARKS
LA GUARDIA NY  PTSUNNY   34  14  43 W12       30.04F
RALEIGH NC     FAIR      42  20  41 CALM      30.22F
ATLANTA GA     FAIR      45  13  27 W7        30.32F
NEW ORLEANS LA FAIR      50  28  42 N7        30.39F
OKLAHOMA CITY  PTSUNNY   44  22  41 S21       30.04F
ALBUQUERQUE NM PTSUNNY   36  12  37 SW6       30.17R
SALT LAKE CITY PTSUNNY   58  29  33 S18G36    29.79S
LOS ANGELES CA PTSUNNY   60  56  86 SE5       30.03S FOG
BOISE ID       CLOUDY    38  35  89 N3        29.93R
SEATTLE WA     MOCLDY    42  36  79 S7        29.87R
$$

*** WEATHER ACROSS MANITOBA...SASKATCHEWAN AND ONTARIO ***
                ***ONTARIO***

CITY           SKY/WX    TMP DP  RH WIND       PRES   REMARKS
GERALDTON      CLOUDY    32  28  86 SW16      29.28F WCI  21
THUNDER BAY    CLOUDY    28  27  93 NW2       29.36F
SIOUX LOOKOUT  CLOUDY    30  27  86 SW8       29.25S WCI  23
TORONTO        MOSUNNY   30  19  64 SW20      29.87F WCI  18
BIG TROUT LK   FLURRIES   7   1  78 E8        29.32R WCI  -6
PICKLE LAKE    CLOUDY    25  23  93 SW8       29.19F WCI  16
DRYDEN         PTSUNNY   34  28  80 SW13G20   29.28S WCI  25
KENORA         PTSUNNY   32  28  86 SW7       29.29S
$$
                *** MANITOBA***

CITY           SKY/WX    TMP DP  RH WIND       PRES   REMARKS
BRANDON        PTSUNNY   34  30  86 W15       29.43R WCI  24
DAUPHIN        FLURRIES  25  23  93 NE5       29.40R WCI  19
ISLAND LAKE    LGT SNOW  12   9  85 N8        29.30S WCI   1
PILOT MOUND      N/A     37  30  75 W14G20      N/A
THE PAS        FLURRIES  12   7  79 NE3       29.42R
THOMPSON       LGT SNOW   1  -4  78 NE12G20   29.49R DRFTSNOWWCI -15
WINNIPEG       PTSUNNY   37  30  75 W16       29.35R
LYNN LAKE      FLURRIES   1  -2  85 NE8       29.50R WCI -12
CHURCHILL      FLURRIES   3   0  85 E10       29.70S WCI -12
GILLAM         LGT SNOW   0  -4  85 NE13      29.52R FOG     WCI -18
$$
                ***SASKATCHEWAN***

CITY           SKY/WX    TMP DP  RH WIND       PRES   REMARKS
ESTEVAN        PTSUNNY   36  27  69 W12       29.54R
KINDERSLEY     MOSUNNY   28  19  69 SW8       29.51R WCI  20
LLOYDMINSTER   MOCLDY    30  21  69 W16       29.42R WCI  19
PRINCE ALBERT  PTSUNNY   34  32  93 W9        29.39R
REGINA         MOSUNNY   30  23  74 W13       29.51R WCI  20
YORKTON        SUNNY     34  28  80 SW12      29.40R



USA.gov is the U.S. government's official web portal to all federal, state and local government web resources and services.